Kelso, MO

1:32 PM CST on February 21, 2017 (GMT -0600)
Cape Girardeau Regional

Weather History for KCGI - December, 2012

Change the Weather History Date:

Sunday, December 30, 2012

  Actual Average Record
Temperature  
Mean Temperature 22 °F 33 °F  
Max Temperature 33 °F 42 °F 64 °F (1971)
Min Temperature 10 °F 25 °F -5 °F (1983)
Degree Days  
Heating Degree Days 43 32  
Month to date heating degree days 654 868  
Since 1 July heating degree days 1593 1719  
Cooling Degree Days 0 0  
Month to date cooling degree days 0 0  
Year to date cooling degree days 1784 1453  
Moisture  
Dew Point 15 °F    
Average Humidity 83    
Maximum Humidity 100    
Minimum Humidity 66    
Precipitation  
Precipitation 0.00 in 0.12 in 1.08 in (1990)
Month to date precipitation 1.63 4.13  
Year to date precipitation 26.91 46.69  
Sea Level Pressure  
Sea Level Pressure 30.43 in    
Wind  
Wind Speed 3 mph (South)    
Max Wind Speed 10 mph    
Max Gust Speed 13 mph    
Visibility 5 miles    
Events Fog    
T = Trace of Precipitation, MM = Missing Value Source: NWS Daily Summary

Daily Weather History Graph

Daily Weather History Graph

Search for Another Location

Airport or City:

Trip Planner

Search our weather history database for the weather conditions in past years. The results will help you decide how hot, cold, wet, or windy it might be!

Date:

Astronomy

Dec. 30, 2012 Rise Set
Actual Time 7:11 AM CST 4:50 PM CST
Civil Twilight 6:42 AM CST 5:19 PM CST
Nautical Twilight 6:10 AM CST 5:52 PM CST
Astronomical Twilight 5:38 AM CST 6:23 PM CST
Moon 7:18 PM CST (12/30) 8:23 AM CST (12/30)
Length of Visible Light 10h 36m
Length of Day
9h 38m
Waning Gibbous, 95% of the Moon is Illuminated
Dec 30
Waning Gibbous
Jan 4
Last Quarter
Jan 11
New
Jan 18
First Quarter
Jan 26
Full

Hourly Weather History & Observations

Time (CST) Temp. Windchill Dew Point Humidity Pressure Visibility Wind Dir Wind Speed Gust Speed Precip Events Conditions
12:16 AM 12.2 °F - 10.4 °F 92% 30.39 in 1.2 mi Calm Calm - N/A   Partly Cloudy
12:20 AM 12.2 °F 4.3 °F 10.4 °F 92% 30.39 in 0.8 mi SW 4.6 mph - N/A   Mist
12:27 AM 10.4 °F 4.0 °F 10.4 °F 100% 30.39 in 1.2 mi WSW 3.5 mph - N/A   Scattered Clouds
12:31 AM 12.2 °F 6.1 °F 8.6 °F 85% 30.39 in 3.0 mi WSW 3.5 mph - N/A   Scattered Clouds
12:41 AM 12.2 °F 6.1 °F 10.4 °F 92% 30.39 in 1.8 mi WSW 3.5 mph - N/A   Partly Cloudy
12:53 AM 12.0 °F - 10.0 °F 92% 30.40 in 1.5 mi Calm Calm - N/A   Clear
1:00 AM 12.2 °F - 10.4 °F 92% 30.39 in 1.0 mi Calm Calm - N/A   Mist
1:07 AM 12.2 °F - 10.4 °F 92% 30.40 in 0.5 mi Calm Calm - N/A Fog Light Freezing Fog
1:20 AM 12.2 °F - 10.4 °F 92% 30.41 in 1.2 mi Calm Calm - N/A   Partly Cloudy
1:25 AM 15.8 °F - 10.4 °F 79% 30.41 in 3.0 mi Calm Calm - N/A   Partly Cloudy
1:53 AM 14.0 °F - 10.0 °F 84% 30.43 in 3.0 mi Calm Calm - N/A   Scattered Clouds
2:05 AM 12.2 °F - 10.4 °F 92% 30.42 in 6.0 mi Calm Calm - N/A   Mostly Cloudy
2:28 AM 12.2 °F - 8.6 °F 85% 30.43 in 5.0 mi Calm Calm - N/A   Overcast
2:36 AM 12.2 °F - 10.4 °F 92% 30.43 in 1.8 mi Calm Calm - N/A   Overcast
2:43 AM 14.0 °F - 10.4 °F 86% 30.43 in 0.2 mi Calm Calm - N/A Fog Light Freezing Fog
2:53 AM 14.0 °F - 12.0 °F 92% 30.44 in 0.2 mi Calm Calm - N/A Fog Light Freezing Fog
3:49 AM 12.2 °F - 10.4 °F 92% 30.45 in 0.5 mi Calm Calm - N/A Fog Light Freezing Fog
3:53 AM 12.9 °F - 10.0 °F 88% 30.46 in 0.8 mi Calm Calm - N/A   Mist
4:16 AM 12.2 °F - 10.4 °F 92% 30.44 in 0.2 mi Calm Calm - N/A Fog Light Freezing Fog
4:31 AM 14.0 °F 8.2 °F 10.4 °F 86% 30.43 in 1.0 mi East 3.5 mph - N/A   Mist
4:40 AM 14.0 °F - 10.4 °F 86% 30.44 in 2.5 mi Calm Calm - N/A   Overcast
4:48 AM 14.0 °F - 10.4 °F 86% 30.44 in 5.0 mi Calm Calm - N/A   Overcast
4:53 AM 14.0 °F - 10.0 °F 84% 30.45 in 6.0 mi Calm Calm - N/A   Overcast
5:10 AM 12.2 °F 4.3 °F 8.6 °F 85% 30.44 in 6.0 mi East 4.6 mph - N/A   Scattered Clouds
5:53 AM 12.0 °F 5.9 °F 8.1 °F 84% 30.48 in 6.0 mi ESE 3.5 mph - N/A   Clear
6:53 AM 10.9 °F - 8.1 °F 88% 30.49 in 6.0 mi Calm Calm - N/A   Clear
7:53 AM 12.0 °F - 10.0 °F 92% 30.51 in 4.0 mi Calm Calm - N/A   Clear
8:53 AM 15.1 °F - 15.1 °F 100% 30.53 in 3.0 mi Calm Calm - N/A   Clear
9:53 AM 21.0 °F - 17.1 °F 85% 30.52 in 4.0 mi Calm Calm - N/A   Clear
10:53 AM 25.0 °F - 21.9 °F 88% 30.50 in 5.0 mi Calm Calm - N/A   Clear
11:53 AM 28.9 °F - 24.1 °F 82% 30.48 in 6.0 mi Calm Calm - N/A   Haze
12:53 PM 32.0 °F 26.4 °F 23.0 °F 69% 30.47 in 10.0 mi SSW 5.8 mph - N/A   Clear
1:53 PM 33.1 °F 26.9 °F 24.1 °F 70% 30.44 in 10.0 mi South 6.9 mph - N/A   Clear
2:53 PM 33.1 °F 26.9 °F 25.0 °F 72% 30.45 in 10.0 mi South 6.9 mph - N/A   Clear
3:53 PM 32.0 °F 28.7 °F 26.1 °F 79% 30.43 in 9.0 mi South 3.5 mph - N/A   Clear
4:53 PM 30.0 °F 25.2 °F 25.0 °F 82% 30.41 in 8.0 mi South 4.6 mph - N/A   Clear
5:53 PM 28.0 °F 21.7 °F 24.1 °F 85% 30.41 in 10.0 mi SSE 5.8 mph - N/A   Clear
6:53 PM 28.0 °F 21.7 °F 23.0 °F 81% 30.40 in 10.0 mi South 5.8 mph - N/A   Clear
7:53 PM 28.9 °F 25.2 °F 23.0 °F 78% 30.40 in 10.0 mi South 3.5 mph - N/A   Clear
8:53 PM 30.9 °F 25.2 °F 25.0 °F 79% 30.38 in 10.0 mi South 5.8 mph - N/A   Clear
9:53 PM 30.9 °F 25.2 °F 26.1 °F 82% 30.35 in 10.0 mi South 5.8 mph - N/A   Clear
10:53 PM 33.1 °F 26.1 °F 27.0 °F 78% 30.34 in 10.0 mi SSW 8.1 mph - N/A   Clear
11:53 PM 32.0 °F 24.8 °F 27.0 °F 82% 30.33 in 10.0 mi SSW 8.1 mph - N/A   Clear